Wind_Speed
21 22 22 23 23 23 24 25 26 27 28 29 30 32 33 35 36 38 40 42 43 45 46 47 48 50 51 52 53 54 55 56 57 58 58 59 59 59 59 60 60 61 61
22 23 23 23 24 24 25 26 26 28 29 30 32 33 34 36 38 39 41 43 44 46 47 49 50 51 53 54 55 57 58 58 60 61 62 61 60 60 61 62 62 63 63
23 23 24 24 25 26 26 27 28 29 30 31 32 33 35 36 38 40 42 44 46 47 49 51 52 54 55 56 57 59 60 61 62 64 65 65 63 63 63 63 64 64 65
24 24 25 25 26 27 28 29 29 30 31 32 34 35 36 37 39 41 43 45 47 49 51 52 54 56 57 58 60 61 63 64 65 65 67 68 68 68 66 64 65 66 66
24 25 26 26 27 28 28 29 30 32 33 35 36 38 39 41 42 44 46 48 50 52 54 55 57 59 60 61 63 64 66 67 68 69 69 70 71 72 72 69 68 68 68
25 26 27 28 29 30 31 32 33 35 37 38 40 41 43 45 46 48 50 52 54 56 58 60 61 63 64 65 67 68 69 70 71 72 73 74 74 74 75 74 72 71 70
26 27 29 30 31 32 33 35 36 38 40 41 43 45 47 48 50 52 54 55 57 59 62 64 66 68 69 71 72 73 74 75 75 76 77 77 77 77 78 78 76 76 74
28 29 31 32 33 34 36 38 39 40 42 44 46 48 51 52 54 57 59 61 63 65 68 70 71 73 74 75 76 77 77 78 78 79 79 80 80 80 80 80 80 80 77
30 31 33 34 36 38 40 41 43 44 46 49 51 53 56 58 60 63 65 68 70 72 74 75 76 77 78 79 79 80 80 81 81 81 82 82 82 83 83 83 83 82 80
32 34 36 38 39 42 44 46 48 50 52 54 56 58 61 63 66 69 71 73 75 77 78 79 80 81 81 82 82 82 82 83 83 83 83 83 83 83 83 83 83 83 82
36 38 39 42 44 46 49 51 53 55 58 60 62 64 67 69 72 74 76 78 79 81 81 82 83 83 83 84 84 84 83 83 83 83 83 83 83 83 83 83 82 82 81
39 41 44 46 48 51 53 56 58 60 63 65 67 69 72 75 77 79 81 82 83 84 84 85 85 85 85 84 84 83 82 81 81 80 81 81 81 82 81 80 79 79 78
43 46 48 50 53 55 58 60 63 65 67 70 72 75 77 80 82 83 84 84 85 84 84 84 84 84 83 82 81 80 79 78 77 76 77 76 76 76 75 75 74 74 74
47 49 52 54 57 60 62 64 67 69 72 74 77 79 81 83 84 84 84 84 83 83 83 82 82 80 79 78 77 75 74 73 72 71 71 70 70 70 70 70 69 69 69
51 53 56 59 61 63 66 68 71 73 76 78 80 82 83 84 84 83 83 82 81 81 80 78 76 75 73 71 70 69 68 67 66 65 65 65 64 64 64 64 64 65 65
54 57 60 62 65 67 70 72 74 76 79 81 82 83 83 83 83 82 82 81 79 77 75 73 71 69 66 65 64 64 63 61 60 60 59 59 59 59 60 60 61 62 61
57 60 63 66 68 71 73 75 77 79 81 82 83 83 83 82 82 81 80 77 75 72 70 67 65 62 60 60 60 59 58 57 56 55 54 53 54 55 56 56 57 58 58
61 63 66 69 71 74 75 77 79 80 82 82 82 82 82 82 80 78 75 72 69 67 64 61 59 57 55 55 55 54 53 51 50 50 50 50 50 51 52 52 52 53 54
64 67 70 72 74 75 77 79 80 82 82 82 82 81 81 79 76 73 69 67 64 61 59 57 55 53 51 51 50 49 48 47 46 46 46 47 47 48 49 49 49 49 49
67 70 72 74 75 77 79 80 82 83 83 82 81 79 77 75 72 68 65 63 60 57 55 53 51 50 49 47 47 46 45 44 43 42 43 44 45 45 46 46 46 46 46
70 72 74 75 77 79 80 82 82 82 82 80 78 76 73 70 67 65 62 60 57 54 52 51 49 48 47 45 45 45 44 43 42 41 41 41 42 43 43 44 44 44 44
72 74 75 76 78 80 81 82 81 81 79 77 75 71 68 65 63 61 59 56 54 52 50 48 46 45 44 44 43 43 42 42 41 40 40 40 40 41 41 42 42 42 41
73 75 76 77 78 80 81 81 80 79 77 74 70 67 64 62 60 58 56 53 51 50 48 46 44 42 42 42 42 41 41 41 40 40 39 38 38 38 38 39 39 39 39
74 76 78 79 79 79 79 79 78 77 74 71 67 64 61 58 56 54 52 51 49 48 46 44 43 41 41 40 40 39 39 38 38 38 37 36 36 36 35 35 35 36 36
76 77 79 80 79 79 78 76 75 74 71 67 64 61 59 56 53 50 49 48 46 46 45 44 43 41 39 39 38 37 36 36 36 35 34 34 34 34 33 33 33 33 34
77 78 79 79 78 77 75 74 73 71 69 65 62 59 56 53 51 48 45 45 45 44 43 43 43 41 40 38 37 36 35 34 34 33 33 32 32 32 32 32 33 33 34
Wind_Direction
295 296 295 295 294 292 291 290 289 288 287 286 286 286 285 285 285 284 284 284 284 283 283 282 282 281 281 280 280 280 279 279 278 278 278 277 277 278 278 278 277 278 278
297 297 297 296 296 295 294 293 292 292 291 290 289 289 287 287 286 285 285 285 285 285 285 284 284 283 282 282 281 281 280 279 279 278 278 277 277 278 277 277 277 277 277
297 297 297 297 298 298 297 297 296 295 294 293 292 291 290 288 287 287 286 286 286 285 285 285 284 284 283 282 282 281 281 280 280 279 279 279 279 276 276 276 277 277 277
296 297 297 298 299 299 298 298 297 297 297 296 295 293 292 291 290 289 289 288 288 287 286 286 285 285 284 284 283 282 282 281 280 280 280 280 280 278 277 275 275 275 276
296 297 298 298 298 298 298 298 298 298 297 297 296 295 294 293 292 291 291 290 289 289 288 287 286 285 285 284 283 282 281 281 281 280 280 279 279 279 278 276 275 274 274
297 298 298 297 297 297 298 298 298 298 298 298 297 297 296 295 294 293 292 291 290 290 289 288 287 286 285 284 283 282 282 281 280 279 279 278 278 278 278 277 276 275 274
298 298 297 297 298 298 299 300 300 300 300 300 299 299 298 297 296 294 293 292 291 290 289 288 288 287 286 284 283 282 281 280 279 279 278 277 277 277 276 276 275 274 273
298 297 297 298 299 300 301 302 302 301 301 301 301 300 299 298 297 296 295 294 293 291 290 289 288 287 286 285 283 283 282 280 279 278 277 276 276 275 275 275 274 273 273
297 297 298 300 301 302 303 303 302 302 302 302 301 300 300 299 298 297 296 295 294 293 291 290 289 287 286 284 283 282 281 280 279 278 276 275 275 274 273 273 273 273 272
297 298 300 302 303 303 304 304 304 303 303 302 302 301 300 300 299 298 297 296 295 293 292 290 289 288 287 286 284 283 281 280 279 277 276 275 274 273 273 272 272 272 272
299 301 303 304 304 305 305 305 305 305 304 304 303 303 302 301 300 299 298 297 296 294 293 291 290 289 288 287 285 284 282 280 278 277 276 274 273 273 272 272 272 271 271
300 302 304 305 305 306 306 306 306 305 305 304 304 303 302 302 301 300 299 298 297 295 294 293 292 291 289 288 286 285 283 281 280 278 276 275 274 273 273 272 272 271 271
301 303 304 305 306 306 306 306 305 305 305 304 304 304 303 303 302 301 300 299 298 297 296 294 293 292 290 289 287 285 283 282 281 279 278 277 275 274 273 272 272 271 271
302 304 305 306 306 306 306 306 306 306 306 305 305 305 304 304 303 303 302 301 300 298 297 296 295 293 292 290 288 286 285 283 282 280 279 277 276 275 274 272 272 271 271
302 304 305 305 306 306 306 306 307 307 306 306 306 306 306 306 305 304 303 303 302 301 299 298 296 295 293 292 290 288 286 284 283 281 280 278 276 275 274 273 272 272 271
303 304 305 306 306 306 307 307 307 307 307 307 308 308 307 307 306 305 305 304 303 302 301 299 298 296 295 293 291 290 288 286 285 283 281 280 278 276 275 274 273 272 271
303 304 305 306 307 307 308 308 308 308 309 309 309 309 308 308 308 307 307 306 305 303 302 301 300 298 295 293 292 291 289 288 286 284 281 280 278 277 276 275 274 274 273
304 305 306 307 307 308 308 309 309 310 310 311 311 310 310 309 309 309 308 307 306 305 304 303 301 299 297 295 294 292 291 290 289 286 284 281 280 279 278 276 275 275 274
305 306 307 308 308 309 309 310 311 311 312 312 312 311 311 311 311 310 309 308 307 306 306 305 303 302 300 298 296 294 293 292 290 287 285 284 282 280 279 277 276 275 274
306 307 308 309 310 310 311 312 312 312 312 313 313 313 312 312 311 311 310 309 308 307 307 306 305 304 302 300 299 297 295 294 291 289 287 285 283 282 280 279 277 276 274
308 309 310 310 311 312 312 313 313 313 313 314 314 313 313 312 312 312 311 310 309 308 308 307 306 305 303 302 301 299 297 295 293 291 289 287 285 284 282 281 279 277 275
309 310 310 311 312 313 313 314 314 314 314 314 314 314 313 313 312 312 312 311 310 310 309 308 307 306 304 303 302 300 298 297 295 293 291 289 287 286 284 282 281 279 277
309 310 311 312 313 314 314 314 315 315 315 315 315 314 314 314 313 313 312 312 311 311 310 310 309 308 306 304 302 300 299 297 296 295 293 291 290 288 286 283 281 280 278
310 311 312 313 313 314 315 315 315 315 315 315 315 315 314 314 313 313 312 312 312 312 311 310 310 310 309 307 304 302 300 299 297 296 295 294 291 290 288 285 283 281 279
311 312 313 314 314 315 315 315 315 315 315 315 315 315 314 313 313 313 312 312 313 313 312 312 312 312 311 310 308 305 303 301 300 298 297 295 293 291 289 287 285 283 281
311 312 313 314 315 315 315 315 315 315 315 315 315 314 314 313 313 312 312 312 313 313 312 313 314 314 314 313 311 309 307 305 302 301 299 297 295 293 290 287 286 284 283
Height
5804 5802 5800 5798 5797 5795 5793 5791 5790 5788 5786 5784 5782 5780 5778 5775 5773 5770 5768 5765 5762 5760 5757 5755 5753 5750 5748 5746 5743 5741 5739 5737 5734 5732 5731 5730 5728 5727 5726 5724 5722 5721 5719
5800 5798 5796 5794 5792 5790 5788 5786 5784 5782 5779 5777 5775 5773 5770 5767 5764 5761 5759 5756 5753 5750 5747 5744 5741 5738 5736 5733 5730 5727 5724 5722 5719 5716 5714 5714 5716 5713 5710 5708 5707 5705 5703
5796 5794 5791 5789 5787 5784 5782 5780 5778 5775 5773 5770 5768 5765 5762 5759 5756 5753 5750 5746 5743 5739 5736 5733 5729 5726 5723 5720 5716 5712 5709 5707 5704 5700 5697 5696 5698 5697 5696 5693 5691 5688 5686
5791 5789 5787 5784 5782 5779 5776 5774 5771 5768 5766 5763 5760 5757 5754 5751 5748 5744 5740 5736 5732 5729 5725 5721 5717 5713 5709 5706 5702 5698 5694 5690 5688 5684 5681 5678 5677 5675 5677 5678 5675 5672 5669
5786 5784 5781 5779 5776 5773 5770 5768 5765 5762 5759 5756 5753 5749 5746 5742 5739 5734 5730 5726 5721 5717 5712 5708 5703 5699 5695 5691 5686 5681 5677 5673 5670 5667 5664 5660 5657 5654 5653 5656 5658 5654 5652
5781 5778 5776 5773 5770 5767 5764 5761 5758 5755 5751 5747 5744 5740 5736 5732 5728 5723 5719 5714 5709 5704 5698 5693 5688 5683 5678 5674 5669 5664 5659 5655 5651 5647 5644 5640 5638 5636 5631 5631 5634 5633 5633
5775 5772 5769 5766 5763 5760 5757 5754 5750 5747 5743 5738 5734 5729 5725 5720 5716 5711 5706 5701 5695 5689 5683 5677 5671 5666 5660 5655 5649 5644 5640 5635 5631 5627 5623 5619 5617 5614 5610 5608 5609 5609 5611
5769 5766 5762 5759 5756 5753 5749 5746 5742 5737 5733 5728 5723 5718 5713 5708 5702 5696 5691 5685 5679 5673 5666 5659 5653 5647 5640 5634 5628 5623 5618 5613 5608 5604 5600 5596 5595 5590 5588 5586 5583 5583 5587
5762 5758 5755 5752 5748 5744 5740 5736 5732 5727 5722 5717 5712 5706 5700 5693 5687 5681 5674 5667 5661 5654 5647 5639 5632 5625 5618 5612 5605 5600 5595 5589 5585 5581 5576 5573 5571 5566 5564 5562 5559 5557 5560
5754 5751 5747 5743 5739 5735 5730 5725 5720 5715 5710 5704 5698 5691 5685 5678 5670 5663 5656 5648 5640 5632 5625 5617 5609 5602 5595 5587 5581 5576 5570 5565 5561 5556 5552 5549 5546 5542 5539 5537 5535 5533 5533
5746 5743 5738 5734 5729 5724 5719 5714 5708 5702 5696 5689 5682 5675 5668 5660 5652 5643 5635 5626 5618 5609 5601 5592 5585 5577 5570 5562 5555 5549 5544 5538 5535 5530 5526 5524 5520 5516 5514 5512 5510 5509 5508
5738 5733 5729 5724 5719 5713 5707 5701 5694 5688 5681 5673 5666 5658 5649 5641 5632 5622 5613 5603 5594 5584 5575 5567 5559 5551 5543 5536 5528 5522 5517 5512 5508 5504 5499 5498 5494 5491 5490 5487 5486 5486 5485
5728 5723 5718 5713 5707 5701 5694 5687 5680 5673 5665 5657 5648 5639 5630 5620 5610 5600 5589 5579 5569 5560 5550 5541 5533 5525 5517 5509 5502 5496 5491 5486 5483 5479 5475 5473 5469 5467 5465 5463 5463 5463 5463
5718 5713 5707 5701 5695 5688 5681 5673 5665 5656 5648 5639 5629 5619 5609 5598 5587 5576 5565 5555 5544 5535 5525 5516 5507 5499 5491 5484 5477 5471 5466 5462 5459 5455 5451 5449 5446 5444 5442 5441 5442 5441 5441
5707 5701 5695 5689 5682 5674 5666 5658 5649 5639 5630 5620 5609 5598 5587 5576 5564 5553 5542 5532 5521 5511 5501 5492 5483 5475 5467 5460 5453 5448 5444 5440 5437 5433 5430 5427 5425 5423 5421 5421 5421 5420 5420
5696 5689 5682 5675 5667 5659 5650 5641 5632 5621 5611 5600 5589 5577 5566 5554 5542 5531 5520 5509 5499 5488 5478 5469 5461 5454 5446 5439 5432 5427 5423 5420 5417 5414 5411 5408 5405 5403 5402 5401 5401 5401 5401
5683 5676 5668 5660 5651 5642 5633 5624 5614 5603 5592 5580 5568 5556 5544 5533 5521 5510 5499 5488 5477 5468 5459 5450 5441 5434 5428 5420 5414 5408 5404 5401 5398 5395 5392 5390 5388 5385 5384 5383 5382 5382 5382
5669 5662 5653 5645 5635 5626 5616 5606 5595 5583 5572 5560 5548 5535 5523 5512 5501 5489 5478 5468 5458 5449 5440 5432 5424 5417 5411 5403 5397 5392 5388 5385 5382 5378 5375 5373 5371 5369 5367 5366 5366 5365 5365
5655 5646 5637 5628 5618 5608 5598 5588 5576 5564 5552 5540 5528 5516 5503 5492 5481 5471 5460 5450 5440 5432 5424 5416 5408 5401 5396 5389 5383 5377 5373 5370 5367 5364 5360 5357 5356 5354 5351 5350 5350 5349 5349
5640 5631 5621 5611 5601 5590 5579 5569 5557 5545 5533 5522 5510 5497 5484 5472 5462 5452 5443 5434 5424 5416 5409 5402 5394 5387 5381 5375 5369 5364 5360 5357 5354 5350 5347 5343 5341 5339 5336 5335 5334 5334 5333
5624 5614 5604 5594 5583 5571 5561 5550 5538 5526 5515 5503 5491 5480 5467 5455 5445 5436 5427 5418 5410 5403 5395 5388 5382 5375 5368 5363 5357 5351 5346 5343 5340 5337 5334 5331 5327 5325 5322 5321 5319 5319 5318
5608 5598 5588 5578 5566 5553 5542 5532 5521 5509 5498 5486 5475 5463 5452 5441 5430 5421 5413 5404 5396 5389 5382 5375 5370 5363 5356 5350 5345 5340 5335 5330 5327 5324 5321 5318 5315 5312 5309 5307 5306 5304 5303
5591 5581 5571 5561 5550 5537 5524 5513 5502 5491 5480 5470 5458 5448 5437 5427 5417 5408 5399 5392 5384 5376 5370 5363 5357 5352 5346 5339 5333 5328 5323 5319 5315 5311 5308 5305 5302 5299 5297 5295 5293 5291 5290
5575 5565 5555 5544 5534 5522 5509 5495 5484 5473 5463 5453 5443 5433 5423 5414 5405 5396 5387 5379 5372 5365 5358 5352 5346 5341 5335 5329 5323 5318 5313 5308 5303 5300 5297 5293 5290 5287 5285 5283 5281 5279 5278
5559 5548 5537 5527 5516 5505 5493 5480 5468 5457 5447 5438 5428 5418 5409 5400 5393 5385 5376 5368 5361 5353 5346 5340 5335 5329 5324 5318 5312 5307 5302 5298 5293 5289 5286 5283 5280 5277 5274 5272 5270 5268 5267
5542 5532 5521 5510 5499 5488 5477 5465 5453 5442 5431 5422 5413 5404 5396 5388 5380 5373 5367 5359 5350 5344 5336 5330 5324 5318 5313 5307 5302 5297 5292 5287 5283 5279 5276 5273 5270 5267 5264 5262 5260 5258 5256